GW3067 Weather Reports


time (UTC)temp
C
wind
direction
speed
KPH
gust
KPH
rain 1hr
cm
rain 24hr
cm
rain mn
cm
humidity
%
barometer
mb
20260508050050 8 146 9.7 22.5 0.00 0.25 0.23 68 1014.6
20260508044547 8 146 8.0 17.7 0.00 0.28 0.23 67 1014.6
20260508043051 8 157 8.0 19.3 0.00 0.28 0.23 67 1014.7
20260508041549 9 169 6.4 14.5 0.00 0.28 0.23 66 1014.6
20260508040053 10 142 6.4 14.5 0.00 0.28 0.23 64 1014.6
20260508034553 10 173 8.0 14.5 0.00 0.33 0.23 63 1014.4
20260508033101 10 181 4.8 9.7 0.00 0.33 0.23 61 1014.4
20260508031559 12 126 4.8 8.0 0.00 0.33 0.23 58 1014.2
20260508030109 13 137 3.2 6.4 0.00 0.33 0.23 55 1014.2
20260508024600 14 329 1.6 3.2 0.00 0.33 0.23 47 1014.1
20260508023055 15 0 0.0 12.9 0.00 0.33 0.23 45 1013.6
20260508021554 15 254 6.4 19.3 0.00 0.33 0.23 43 1013.4
20260508020056 16 0 1.6 11.3 0.00 0.33 0.23 41 1013.3
20260508014555 17 335 8.0 19.3 0.00 0.33 0.23 38 1013.2
20260508013049 17 302 3.2 17.7 0.00 0.33 0.23 38 1013.2
20260508011552 17 302 9.7 20.9 0.00 0.33 0.23 38 1013.1
20260508010050 17 282 11.3 20.9 0.00 0.33 0.23 36 1013.2
20260508004549 17 338 8.0 19.3 0.00 0.33 0.23 37 1013.3
20260508003049 18 313 9.7 27.4 0.00 0.33 0.23 35 1013.1
20260508001551 18 313 12.9 29.0 0.00 0.33 0.23 38 1013.1
20260508000048 18 284 6.4 19.3 0.00 0.33 0.23 38 1013.2
20260507234556 18 237 3.2 25.7 0.00 0.33 0.23 39 1013.1
20260507233050 18 237 11.3 17.7 0.00 0.33 0.23 42 1013.1
20260507231554 17 254 4.8 12.9 0.00 0.33 0.23 45 1013.2
20260507230059 17 232 6.4 19.3 0.00 0.33 0.23 44 1013.3
20260507224556 17 344 4.8 16.1 0.00 0.33 0.23 43 1013.2
20260507223048 16 305 11.3 24.1 0.00 0.33 0.23 44 1013.4
20260507221551 17 252 9.7 20.9 0.00 0.33 0.23 44 1013.4
20260507220051 17 282 14.5 29.0 0.00 0.33 0.23 45 1013.2
20260507214613 17 294 8.0 27.4 0.00 0.33 0.23 43 1013.4
20260507213104 17 247 1.6 25.7 0.00 0.33 0.23 47 1013.6
20260507211606 16 320 14.5 25.7 0.00 0.33 0.23 49 1013.7
20260507210054 16 311 8.0 22.5 0.00 0.33 0.23 51 1013.7
20260507204558 16 352 11.3 22.5 0.00 0.33 0.23 53 1013.7
20260507203051 15 296 8.0 22.5 0.00 0.33 0.23 52 1013.9
20260507201550 15 308 8.0 19.3 0.00 0.33 0.23 54 1014.0
20260507200047 15 225 3.2 11.3 0.00 0.33 0.23 56 1013.9
20260507194619 15 301 6.4 19.3 0.00 0.33 0.23 54 1014.0
20260507193046 15 289 8.0 16.1 0.00 0.33 0.23 59 1014.3
20260507191553 13 287 1.6 11.3 0.00 0.33 0.23 59 1014.2
20260507190047 13 252 3.2 11.3 0.00 0.33 0.23 59 1014.4
20260507184602 13 0 1.6 12.9 0.00 0.33 0.23 60 1014.4
20260507183048 13 260 3.2 17.7 0.00 0.33 0.23 58 1014.6
20260507181547 13 246 3.2 19.3 0.00 0.33 0.23 64 1014.7
20260507180057 13 267 0.0 9.7 0.00 0.33 0.23 67 1014.7
20260507174550 12 307 1.6 9.7 0.00 0.33 0.23 71 1015.0
20260507173049 11 307 4.8 9.7 0.00 0.33 0.23 72 1015.0
20260507171551 11 0 0.0 4.8 0.00 0.33 0.23 80 1015.2
20260507170046 11 348 0.0 4.8 0.00 0.33 0.23 79 1015.0
20260507164549 11 24 0.0 8.0 0.00 0.33 0.23 80 1014.9
20260507163050 11 0 1.6 4.8 0.00 0.33 0.23 83 1014.7
20260507161550 11 136 3.2 6.4 0.00 0.33 0.23 81 1014.6
20260507160056 10 0 1.6 4.8 0.00 0.33 0.23 80 1014.7
20260507154557 10 146 0.0 3.2 0.00 0.33 0.23 91 1014.7
20260507153047 10 0 0.0 6.4 0.00 0.33 0.23 93 1014.7
20260507151554 9 0 0.0 4.8 0.00 0.33 0.23 93 1014.6
20260507150057 8 146 0.0 4.8 0.03 0.33 0.23 93 1014.5
20260507144551 8 0 0.0 3.2 0.03 0.33 0.23 94 1014.3
20260507143101 8 141 1.6 6.4 0.03 0.33 0.23 95 1014.2
20260507141552 8 137 4.8 11.3 0.03 0.33 0.23 96 1014.2
20260507140057 7 168 6.4 12.9 0.00 0.30 0.20 96 1014.2
20260507134558 7 180 3.2 19.3 0.00 0.30 0.20 96 1014.3
20260507133100 7 0 3.2 8.0 0.00 0.30 0.20 96 1013.9
20260507131608 7 0 1.6 6.4 0.00 0.30 0.20 96 1013.8
20260507130049 6 93 3.2 11.3 0.00 0.30 0.20 97 1013.9
20260507124551 6 247 3.2 6.4 0.00 0.30 0.20 96 1014.0
20260507123051 6 333 6.4 11.3 0.00 0.30 0.20 96 1013.9
20260507121554 6 148 4.8 9.7 0.00 0.30 0.20 96 1013.4
20260507120051 6 148 0.0 4.8 0.00 0.30 0.20 96 1013.4
20260507114549 6 148 3.2 9.7 0.00 0.30 0.20 96 1013.5
20260507113048 6 196 0.0 4.8 0.00 0.30 0.20 95 1013.5
20260507111547 6 198 3.2 8.0 0.00 0.30 0.20 95 1013.1
20260507110050 6 0 1.6 8.0 0.00 0.30 0.20 95 1013.2
20260507104548 6 171 1.6 6.4 0.00 0.30 0.20 94 1013.2
20260507103052 7 177 0.0 6.4 0.03 0.30 0.20 93 1013.2
20260507101554 7 177 3.2 11.3 0.05 0.30 0.20 93 1013.1
20260507100053 7 175 6.4 14.5 0.08 0.30 0.20 94 1013.1
20260507094551 7 144 1.6 11.3 0.15 0.30 0.20 93 1013.4
20260507093055 7 145 4.8 12.9 0.18 0.28 0.18 93 1013.4
20260507091552 7 146 1.6 12.9 0.15 0.25 0.15 91 1013.9
20260507090054 8 141 4.8 16.1 0.13 0.23 0.13 90 1013.4
20260507084554 8 355 4.8 19.3 0.05 0.15 0.05 87 1014.4
20260507083050 8 99 0.0 4.8 0.00 0.10 0.00 83 1013.3
20260507081550 8 0 1.6 9.7 0.00 0.10 0.00 80 1012.7
20260507080113 8 194 0.0 4.8 0.00 0.10 0.00 79 1012.4
20260507074554 9 0 0.0 8.0 0.00 0.10 0.00 77 1012.0
20260507073050 9 169 4.8 12.9 0.00 0.10 0.00 75 1011.9
20260507071607 7 140 6.4 11.3 0.00 0.10 0.00 86 1011.8
20260507070055 7 171 4.8 11.3 0.00 0.10 0.00 87 1011.8
20260507064552 8 163 3.2 9.7 0.00 0.10 0.00 87 1011.9
20260507063052 8 162 0.0 9.7 0.00 0.10 0.00 87 1011.9
20260507061556 8 149 3.2 8.0 0.00 0.10 0.00 88 1011.8
20260507060051 8 146 3.2 12.9 0.03 0.10 0.00 86 1011.8
20260507054554 9 148 6.4 16.1 0.03 0.10 0.10 87 1011.9
20260507053117 9 153 6.4 11.3 0.03 0.10 0.10 87 1012.1
20260507051601 9 182 6.4 12.9 0.05 0.10 0.10 87 1012.3